This is the latest recevied weather packets stored in our database for station/object NN5DX-13. If no packets are shown the sender has not sent any weather packets the latest 10 day(s).
| Time | Temp. | Humidity | Pressure | Rain* | Wind** | Luminosity | Snow |
|---|---|---|---|---|---|---|---|
| 1777507517 | 28.33° C | 40% | 1011.5 hPa | 0 mm | - | - | - |
| 1777507216 | 28.33° C | 39% | 1011.2 hPa | 0 mm | - | - | - |
| 1777506916 | 28.89° C | 37% | 1011.3 hPa | 0 mm | - | - | - |
| 1777506616 | 28.89° C | 32% | 1011.4 hPa | 0 mm | - | - | - |
| 1777506317 | 28.89° C | 31% | 1011.7 hPa | 0 mm | - | - | - |
| 1777506017 | 29.44° C | 30% | 1011.6 hPa | 0 mm | - | - | - |
| 1777505716 | 29.44° C | 29% | 1011.4 hPa | 0 mm | - | - | - |
| 1777505416 | 30° C | 25% | 1011.1 hPa | 0 mm | - | - | - |
| 1777505116 | 30° C | 22% | 1010.8 hPa | 0 mm | - | - | - |
| 1777504817 | 30° C | 29% | 1010.9 hPa | 0 mm | - | - | - |
| 1777504516 | 30° C | 29% | 1011.2 hPa | 0 mm | - | - | - |
| 1777504217 | 30.56° C | 25% | 1011.4 hPa | 0 mm | - | - | - |
| 1777503916 | 30.56° C | 25% | 1011 hPa | 0 mm | - | - | - |
| 1777503616 | 30.56° C | 24% | 1010.8 hPa | 0 mm | - | - | - |
| 1777503317 | 30.56° C | 24% | 1010.8 hPa | 0 mm | - | - | - |
| 1777503017 | 30.56° C | 23% | 1010.9 hPa | 0 mm | - | - | - |
| 1777502716 | 30.56° C | 24% | 1010.9 hPa | 0 mm | - | - | - |
| 1777502416 | 30.56° C | 25% | 1010.6 hPa | 0 mm | - | - | - |
| 1777502116 | 30.56° C | 26% | 1010.8 hPa | 0 mm | - | - | - |
| 1777501817 | 31.11° C | 25% | 1011 hPa | 0 mm | - | - | - |
| 1777501516 | 31.11° C | 26% | 1011.1 hPa | 0 mm | - | - | - |
| 1777501216 | 31.11° C | 24% | 1011 hPa | 0 mm | - | - | - |
| 1777500916 | 31.11° C | 24% | 1011 hPa | 0 mm | - | - | - |
| 1777500616 | 31.11° C | 23% | 1010.9 hPa | 0 mm | - | - | - |
| 1777500317 | 31.11° C | 24% | 1010.9 hPa | 0 mm | - | - | - |
* Rain latest hour (hover to see other rain measurements)
** Current wind speed in m/s (hover to see current wind gust speed)